Location: Mount Wilson Observatory
(34.2257°N, 118.0571°W)
Time: 22:03:37
(UTC-07:00)

ATLAS 3B CENTAUR R/B - Visible Passes

Search period start: 20 April 2015 00:00
Search period end: 30 April 2015 00:00
Orbit: 222 x 7800 km, 28.1° (Epoch: 20 April)

Date Brightness Start Highest point End Pass type
(mag) Time Alt. Az. Time Alt. Az. Time Alt. Az.
21 Apr 2.6 05:41:02 10° SSW 05:42:26 15° SSE 05:44:27 10° ESE visible
26 Apr 2.1 05:31:33 10° SSW 05:32:53 16° SSE 05:34:41 10° ESE visible
27 Apr 2.5 04:53:03 11° SSE 04:53:03 11° SSE 04:53:17 10° SE visible
